When you browse on this site, cookies collect data to enhance your experience and personalize the content and advertising you see.
Visit our Privacy Policy to learn more. By continuing to use the site, you agree to this use of cookies and data.
  • In Lithuania
  • List of Countries
  • For 7 days
  • Water Temperature
  • Satellite Maps
  • Weather Map
  • Weather Widgets
  • user-avatar
    Login

    Hourly Weather Klagenfurt

    Today, 21 April, Sunday

    Time Temperature Precipitation Wind Pressure Humidity
    00:00 +6°C° 0 mm 0 mps 695 mmHg 72%
    01:00 +6°C° 0 mm 0 mps 695 mmHg 70%
    02:00 +6°C° 0 mm 0 mps 694 mmHg 71%
    03:00 +5°C° 0 mm 0 mps 694 mmHg 72%
    04:00 +6°C° 0 mm 1 mps 694 mmHg 73%
    05:00 +7°C° 0 mm 0 mps 694 mmHg 70%
    06:00 +8°C° 0 mm 0 mps 694 mmHg 66%
    07:00 +10°C° 0 mm 0 mps 694 mmHg 60%
    08:00 +12°C° 0 mm 0 mps 694 mmHg 53%
    09:00 +15°C° 0 mm 1 mps 694 mmHg 46%
    10:00 +19°C° 0 mm 1 mps 694 mmHg 39%
    11:00 +19°C° 0 mm 1 mps 694 mmHg 37%
    12:00 +20°C° 0 mm 1 mps 694 mmHg 36%
    13:00 +21°C° 0 mm 1 mps 694 mmHg 34%
    14:00 +21°C° 0 mm 1 mps 693 mmHg 36%
    15:00 +19°C° 0 mm 2 mps 693 mmHg 39%
    16:00 +19°C° 0 mm 2 mps 692 mmHg 41%
    17:00 +16°C° 0 mm 2 mps 692 mmHg 51%
    18:00 +14°C° 0 mm 1 mps 691 mmHg 60%
    19:00 +12°C° 0 mm 1 mps 691 mmHg 70%
    20:00 +11°C° 0 mm 1 mps 691 mmHg 74%
    21:00 +10°C° 0 mm 1 mps 691 mmHg 78%
    22:00 +8°C° 0 mm 1 mps 691 mmHg 82%
    23:00 +8°C° 0 mm 1 mps 690 mmHg 81%

    Tomorrow, 22 April, Monday

    Time Temperature Precipitation Wind Pressure Humidity
    00:00 +8°C° 0 mm 1 mps 690 mmHg 79%
    01:00 +7°C° 0 mm 1 mps 690 mmHg 78%
    02:00 +7°C° 0 mm 1 mps 689 mmHg 76%
    03:00 +6°C° 0 mm 1 mps 689 mmHg 74%
    04:00 +6°C° 0 mm 1 mps 688 mmHg 72%
    05:00 +7°C° 0 mm 1 mps 688 mmHg 68%
    06:00 +8°C° 0 mm 1 mps 688 mmHg 63%
    07:00 +9°C° 0 mm 1 mps 688 mmHg 58%
    08:00 +11°C° 0 mm 1 mps 688 mmHg 52%
    09:00 +14°C° 0 mm 2 mps 688 mmHg 46%
    10:00 +16°C° 0 mm 2 mps 688 mmHg 40%
    11:00 +17°C° 0 mm 2 mps 688 mmHg 40%
    12:00 +17°C° 0 mm 2 mps 687 mmHg 39%
    13:00 +18°C° 0 mm 3 mps 687 mmHg 39%
    14:00 +18°C° 0 mm 3 mps 686 mmHg 43%
    15:00 +17°C° 0 mm 3 mps 686 mmHg 47%
    16:00 +17°C° 0 mm 3 mps 685 mmHg 50%
    17:00 +14°C° 0 mm 2 mps 685 mmHg 60%
    18:00 +12°C° 0 mm 2 mps 684 mmHg 70%
    19:00 +10°C° 0 mm 1 mps 684 mmHg 80%
    20:00 +10°C° 0 mm 1 mps 684 mmHg 82%
    21:00 +9°C° 0 mm 1 mps 684 mmHg 84%
    22:00 +9°C° 0 mm 1 mps 684 mmHg 86%
    23:00 +9°C° 0 mm 1 mps 684 mmHg 84%

    Day after tomorrow, 23 April, Tuesday

    Time Temperature Precipitation Wind Pressure Humidity
    00:00 +8°C° 0 mm 0 mps 683 mmHg 82%
    01:00 +8°C° 0 mm 0 mps 683 mmHg 80%
    02:00 +8°C° 0.5 mm 0 mps 683 mmHg 83%
    03:00 +7°C° 0.5 mm 0 mps 682 mmHg 86%
    04:00 +7°C° 0.5 mm 0 mps 682 mmHg 89%
    05:00 +7°C° 1.6 mm 0 mps 682 mmHg 90%
    06:00 +8°C° 1.6 mm 1 mps 682 mmHg 92%
    07:00 +8°C° 1.6 mm 1 mps 682 mmHg 93%
    08:00 +8°C° 1.7 mm 1 mps 682 mmHg 93%
    09:00 +8°C° 1.7 mm 1 mps 682 mmHg 92%
    10:00 +9°C° 1.7 mm 1 mps 682 mmHg 92%
    11:00 +9°C° 0.7 mm 1 mps 682 mmHg 91%
    12:00 +9°C° 0.7 mm 1 mps 682 mmHg 91%
    13:00 +10°C° 0.7 mm 1 mps 682 mmHg 91%
    14:00 +10°C° 1.1 mm 1 mps 682 mmHg 91%
    15:00 +10°C° 1.1 mm 1 mps 682 mmHg 91%
    16:00 +10°C° 1.1 mm 1 mps 682 mmHg 92%
    17:00 +10°C° 1.2 mm 1 mps 682 mmHg 93%
    18:00 +9°C° 1.2 mm 0 mps 682 mmHg 94%
    19:00 +8°C° 1.2 mm 0 mps 682 mmHg 95%
    20:00 +8°C° 0.3 mm 0 mps 682 mmHg 96%
    21:00 +9°C° 0.3 mm 1 mps 683 mmHg 96%
    22:00 +9°C° 0.3 mm 1 mps 683 mmHg 97%
    23:00 +9°C° 0.3 mm 1 mps 684 mmHg 97%

    24 April, Wednesday

    Time Temperature Precipitation Wind Pressure Humidity
    00:00 +10°C° 0.3 mm 1 mps 684 mmHg 97%
    01:00 +10°C° 0.3 mm 1 mps 684 mmHg 97%
    02:00 +10°C° 0.2 mm 1 mps 685 mmHg 97%
    03:00 +10°C° 0.2 mm 1 mps 685 mmHg 97%
    04:00 +10°C° 0.2 mm 1 mps 685 mmHg 97%
    05:00 +10°C° 0.1 mm 1 mps 685 mmHg 97%
    06:00 +10°C° 0.1 mm 1 mps 686 mmHg 96%
    07:00 +11°C° 0.1 mm 1 mps 686 mmHg 95%
    08:00 +10°C° 0.2 mm 2 mps 687 mmHg 93%
    09:00 +12°C° 0.2 mm 2 mps 687 mmHg 91%
    10:00 +12°C° 0.2 mm 2 mps 687 mmHg 89%
    11:00 +13°C° 0.3 mm 2 mps 688 mmHg 88%
    12:00 +13°C° 0.3 mm 2 mps 688 mmHg 86%
    13:00 +12°C° 0.3 mm 3 mps 688 mmHg 84%
    14:00 +13°C° 0.2 mm 3 mps 688 mmHg 82%
    15:00 +13°C° 0.2 mm 3 mps 688 mmHg 79%
    16:00 +14°C° 0.2 mm 3 mps 688 mmHg 76%
    17:00 +14°C° 0.1 mm 2 mps 688 mmHg 82%
    18:00 +13°C° 0.1 mm 2 mps 688 mmHg 87%
    19:00 +12°C° 0.1 mm 2 mps 688 mmHg 93%
    20:00 +10°C° 0 mm 2 mps 688 mmHg 94%
    21:00 +10°C° 0 mm 2 mps 689 mmHg 96%
    22:00 +9°C° 0 mm 2 mps 689 mmHg 97%
    23:00 +9°C° 0 mm 2 mps 689 mmHg 97%

    25 April, Thursday

    Time Temperature Precipitation Wind Pressure Humidity
    00:00 +10°C° 0 mm 1 mps 689 mmHg 97%
    01:00 +10°C° 0 mm 1 mps 689 mmHg 97%
    02:00 +9°C° 0 mm 1 mps 689 mmHg 97%
    03:00 +9°C° 0 mm 1 mps 689 mmHg 97%
    04:00 +9°C° 0 mm 1 mps 689 mmHg 97%
    05:00 +10°C° 0 mm 1 mps 689 mmHg 94%
    06:00 +11°C° 0 mm 1 mps 689 mmHg 91%
    07:00 +12°C° 0 mm 1 mps 689 mmHg 88%
    08:00 +13°C° 0 mm 2 mps 689 mmHg 83%
    09:00 +15°C° 0 mm 2 mps 690 mmHg 77%
    10:00 +16°C° 0 mm 2 mps 690 mmHg 71%
    11:00 +17°C° 0 mm 3 mps 690 mmHg 69%
    12:00 +17°C° 0 mm 3 mps 690 mmHg 67%
    13:00 +18°C° 0 mm 3 mps 690 mmHg 64%
    14:00 +18°C° 0 mm 3 mps 689 mmHg 65%
    15:00 +18°C° 0 mm 3 mps 689 mmHg 65%
    16:00 +18°C° 0 mm 2 mps 689 mmHg 66%
    17:00 +16°C° 0 mm 2 mps 689 mmHg 73%
    18:00 +14°C° 0 mm 2 mps 688 mmHg 81%
    19:00 +13°C° 0 mm 1 mps 688 mmHg 88%
    20:00 +12°C° 0 mm 1 mps 688 mmHg 90%
    21:00 +12°C° 0 mm 1 mps 688 mmHg 92%
    22:00 +11°C° 0 mm 1 mps 688 mmHg 94%
    23:00 +11°C° 0 mm 1 mps 688 mmHg 95%

    26 April, Friday

    Time Temperature Precipitation Wind Pressure Humidity
    00:00 +11°C° 0 mm 1 mps 687 mmHg 95%
    01:00 +10°C° 0 mm 1 mps 687 mmHg 96%
    02:00 +10°C° 0.1 mm 1 mps 687 mmHg 95%
    03:00 +11°C° 0.1 mm 1 mps 687 mmHg 95%
    04:00 +11°C° 0.1 mm 1 mps 687 mmHg 94%
    05:00 +11°C° 0.2 mm 1 mps 687 mmHg 94%
    06:00 +11°C° 0.2 mm 1 mps 687 mmHg 94%
    07:00 +12°C° 0.2 mm 1 mps 687 mmHg 93%
    08:00 +13°C° 0.2 mm 2 mps 687 mmHg 88%
    09:00 +14°C° 0.2 mm 2 mps 687 mmHg 84%
    10:00 +15°C° 0.2 mm 2 mps 687 mmHg 79%
    11:00 +14°C° 0.2 mm 3 mps 687 mmHg 72%
    12:00 +16°C° 0.2 mm 3 mps 687 mmHg 64%
    13:00 +17°C° 0.2 mm 3 mps 687 mmHg 57%
    14:00 +17°C° 0 mm 3 mps 687 mmHg 55%
    15:00 +15°C° 0 mm 4 mps 687 mmHg 54%
    16:00 +15°C° 0 mm 4 mps 687 mmHg 52%
    17:00 +13°C° 0.1 mm 3 mps 687 mmHg 61%
    18:00 +13°C° 0.1 mm 2 mps 687 mmHg 71%
    19:00 +10°C° 0.1 mm 2 mps 687 mmHg 80%
    20:00 +10°C° 0.1 mm 1 mps 687 mmHg 84%
    21:00 +9°C° 0.1 mm 1 mps 688 mmHg 88%
    22:00 +7°C° 0.1 mm 0 mps 688 mmHg 92%
    23:00 +7°C° 1.3 mm 1 mps 688 mmHg 92%
    Show more